Location: Songkhla
(7.2000°N, 100.6000°E)
Time: 15:38:26
(UTC+07:00)

Tiangong - Visible Passes

Search period start: 14 April 2024 00:00
Search period end: 24 April 2024 00:00
Orbit: 371 x 381 km, 41.5° (Epoch: 13 April)

Date Brightness Start Highest point End Pass type
(mag) Time Alt. Az. Time Alt. Az. Time Alt. Az.
14 Apr 0.0 05:17:52 10° NNW 05:20:35 26° NE 05:23:17 10° ESE visible
15 Apr 1.2 04:17:43 10° NNE 04:18:08 11° NE 04:18:52 10° NE visible
15 Apr 0.5 19:00:23 10° W 19:02:47 21° NW 19:05:11 10° N visible
16 Apr -1.9 04:51:55 55° N 04:52:23 66° NE 04:55:30 10° SE visible
17 Apr -0.4 05:26:08 15° SW 05:26:30 16° SW 05:28:30 10° S visible
